Regional Weather Roundup
Issued by NWS

Home | Current Version | Previous Version | Text Only | Print | Product List | Glossary Off
Versions: 1 2 3 4 5 6 7 8 9 10 11 12 13 14 15 16 17 18 19 20 21 22 23 24 25 26 27 28 29 30 31 32 33 34 35 36 37 38 39 40 41 42 43 44 45 46 47 48 49 50

000
ASUS45 KTFX 281304
RWRMT
MONTANA HOURLY WEATHER ROUNDUP
NATIONAL WEATHER SERVICE GREAT FALLS MT
604 AM MST SAT FEB 28 2015

NOTE: "FAIR" INDICATES FEW OR NO CLOUDS BELOW 12000 FEET WITH NO
SIGNIFICANT WEATHER AND/OR OBSTRUCTIONS TO VISIBILITY.

* THESE STATIONS ARE NOT UNDER NWS QUALITY CONTROL. THEY DO NOT
   REPORT WEATHER SUCH AS PRECIPITATION OR FOG.

MTZ001>007-043-281400-
WEST OF THE DIVIDE
CITY           SKY/WX    TMP DP  RH WIND       PRES   REMARKS
KALISPELL      CLEAR     18   7  62 NE10      30.10R WCI   6
MISSOULA       PTCLDY    21   3  45 SE20      30.06R WCI   6
BUTTE          LGT SNOW  10   5  80 NW5       29.94R WCI   1
MULLAN PASS    CLEAR      9   3  76 VRB5      29.83R
* ANACONDA     MOCLDY    10   3  73 N9         N/A   WCI  -3
* ESSEX        N/A        5   1  83 NE1        N/A
* LINCOLN      N/A       11   4  73 NE8G15     N/A   WCI  -1
* LOOKOUT PASS N/A       17   6  62 SW3        N/A
* POLSON       N/A       16   5  62 NE2        N/A
* RONAN APT    PTCLDY    23   9  55 N/A        N/A
* SEELEY LAKE  N/A        2  -2  83 NE1        N/A
* THOMP F APT  CLEAR     12   4  70 NW8G22     N/A
$$

MTZ008-052>055-281400-
SOUTHWEST MONTANA
CITY           SKY/WX    TMP DP  RH WIND       PRES   REMARKS
BOZEMAN        LGT SNOW  14   9  80 W6        30.02R WCI   5
DILLON         CLOUDY    12   7  80 NE18      29.91R WCI  -5
* W YELLOWSTON PTCLDY    -6 -12  75 N/A        N/A
* THREE FORKS  PTCLDY    16   7  67 N/A        N/A
* BOULDER HILL N/A        7   2  80 N12        N/A   WCI  -9
* MONIDA PASS  N/A        9   6  87 NW7        N/A   WCI  -2
* RAYNOLDS PAS N/A        4 -39  11 VRB9       N/A   WCI -10
* WHITEHALL    N/A       15   6  67 NE5G10     N/A   WCI   7
* WISE RIVER   N/A       13   2  61 E10G16     N/A
$$

MTZ009>010-012-014-046-048-049-054-281400-
EAST SLOPES AND CENTRAL MONTANA
CITY           SKY/WX    TMP DP  RH WIND       PRES   REMARKS
CUT BANK       FAIR       1   0  95 NW9       30.12S WCI -14
GREAT FALLS    CLOUDY    12   7  80 CALM      30.13R
HELENA         CLOUDY    16   9  74 NW6       30.09R WCI   7
MALMSTROM AFB  MOCLDY    12   7  80 SW1       30.16R
* DEARBORN     N/A       14   8  77 N/A        N/A
* EAST GLACIER N/A        7   3  83 W1         N/A
* MONARCH      N/A        5   1  83 W8         N/A   WCI  -8
* PENDROY      N/A        9   6  87 VRB11      N/A   WCI  -5
* ROGERS PASS  N/A        7   3  83 SE3G9      N/A
* SWEET GRASS  N/A        4   1  87 NW11       N/A   WCI -12
$$

MTZ011-013-016-021-035-040-045-047-050-051-281400-
NORTH CENTRAL MONTANA
CITY           SKY/WX    TMP DP  RH WIND       PRES   REMARKS
HAVRE          LGT SNOW   9   5  84 W7        30.21S WCI  -2
LEWISTOWN      LGT SNOW  10   7  88 W8        30.08R WCI  -2
* N BAR RANCH  FAIR      10   3  73 W15G22    30.03S WCI  -7
* CHESTER      N/A        7   2  80 W2         N/A
* DENTON       N/A       10   7  88 W1         N/A
* GEYSER       N/A       10   7  88 W15        N/A   WCI  -7
* JUDITH GAP   N/A        8   7  96 N16        N/A   WCI -10
* LOMA         N/A       13   8  80 W4         N/A
$$

MTZ017>020-022>027-061-062-281400-
NORTHEAST MONTANA
CITY           SKY/WX    TMP DP  RH WIND       PRES   REMARKS
GLASGOW        CLOUDY    10   5  80 W5        30.15R WCI   1
GLENDIVE       CLOUDY     5   0  80 NW7       30.13R WCI  -7
JORDAN         PTCLDY     9   3  76 W7        30.15R WCI  -2
SIDNEY         CLEAR      3  -2  79 W12       30.17R WCI -14
WOLF POINT     CLOUDY    10   3  73 SW6       30.18R
* BEAVER HILL  N/A        3  -2  79 W12        N/A   WCI -14
* CIRCLE       N/A       10   5  80 W2         N/A
* LINDSAY DVD  N/A        5   1  83 NW20G27    N/A   WCI -15
* NAVAJO       N/A        5   0  80 NW8        N/A   WCI  -8
* SACO         N/A       11   4  73 NW11       N/A   WCI  -3
$$

MTZ028>042-056>058-281400-
SOUTHCENTRAL AND SOUTHEAST MONTANA
CITY           SKY/WX    TMP DP  RH WIND       PRES   REMARKS
BAKER          FAIR       5   1  83 NW14      30.08R WCI -12
BILLINGS       LGT SNOW  16  10  77 E6        30.10R WCI   7
LIVINGSTON     LGT SNOW  14   9  80 NW7       30.01R VSB 2 1/2 WCI   4
MILES CITY     CLOUDY     9   1  70 CALM      30.16R
* LAUREL APT   PTCLDY    16   7  67 N/A        N/A
* ROUNDUP APT  PTCLDY    12   3  67 N/A        N/A
* ALZADA       N/A        3   0  87 SW6        N/A   WCI  -8
* HYSHAM       N/A       12   7  80 SE1        N/A
* LAME DEER    N/A        9   6  87 NW4        N/A
* REED POINT   N/A       14   9  80 SE2        N/A
* ROSCOE HILL  N/A        8   4  84 SE2        N/A
$$

REGIONAL REPORTS...DAKOTAS
CITY           SKY/WX    TMP DP  RH WIND       PRES   REMARKS
WILLISTON      PTCLDY     1  -8  65 NW9       30.14R WCI -14
DICKINSON      CLOUDY    10   5  80 W14       30.01R WCI  -6
CROSBY         CLEAR     -6  -9  87 NW13      30.13R WCI -26
WATFORD CITY   CLOUDY     5   0  80 NW10      30.10R WCI -10
BISMARCK       PTCLDY     3   0  87 S3        30.08S
GRAND FORKS    MOCLDY     3  -2  79 S14       30.22S WCI -15
FARGO          MOCLDY     7  -2  66 S17       30.26F WCI -11
BUFFALO SD     CLEAR      7   1  76 W10       29.97R WCI  -7
RAPID CITY     CLEAR     16   9  74 N17       30.03R
$$

REGIONAL REPORTS...WYOMING/IDAHO/WASHINGTON
CITY           SKY/WX    TMP DP  RH WIND       PRES   REMARKS
GILLETTE       CLOUDY    10   3  73 W5        30.03R WCI   1
SHERIDAN       CLOUDY    16   7  67 W5        30.07R WCI   8
CODY           CLOUDY     9   9 100 CALM      29.97S
YELLOWSTONE LA PTCLDY   -13 -18  78 CALM      29.78S
SALMON         MOCLDY    27   9  46 E9        29.86R WCI  18
MULLAN PASS    CLEAR      9   3  76 VRB5      29.83S
SAND POINT     CLEAR     30   5  34 NE17G25   30.09R WCI  18
SPOKANE        CLEAR     28   7  41 N7        30.02R WCI  21
$$

REGIONAL REPORTS...ALBERTA
CITY           SKY/WX    TMP DP  RH WIND       PRES   REMARKS
LETHBRIDGE     LGT SNOW   9   5  84 W7        30.16S WCI  -2

$$



USA.gov is the U.S. government's official web portal to all federal, state and local government web resources and services.